This is the latest recevied weather packets stored in our database for station/object KJ5FA-10. If no packets are shown the sender has not sent any weather packets the latest 10 day(s).
| Time | Temp. | Humidity | Pressure | Rain* | Wind** | Luminosity | Snow |
|---|---|---|---|---|---|---|---|
| 1787901142 | 25° C | 85% | 1017.9 hPa | 0 mm | - | - | - |
| 1787901022 | 25° C | 85% | 1018.5 hPa | 0 mm | - | - | - |
| 1787900083 | 25° C | 84% | 1018.2 hPa | 0 mm | - | - | - |
| 1787899183 | 25.56° C | 82% | 1018.5 hPa | 0 mm | - | - | - |
| 1787898283 | 25.56° C | 81% | 1017.9 hPa | 0 mm | - | - | - |
| 1787897383 | 25.56° C | 82% | 1018 hPa | 0 mm | - | - | - |
| 1787896483 | 25° C | 84% | 1017.7 hPa | 0 mm | - | - | - |
| 1787895583 | 25° C | 85% | 1017.6 hPa | 0 mm | - | - | - |
| 1787894683 | 25° C | 84% | 1017.3 hPa | 0 mm | - | - | - |
| 1787893783 | 25° C | 83% | 1016.9 hPa | 0 mm | - | - | - |
| 1787892883 | 25.56° C | 83% | 1017.1 hPa | 0 mm | - | - | - |
| 1787891983 | 25° C | 85% | 1016.7 hPa | 0 mm | - | - | - |
| 1787891083 | 25.56° C | 85% | 1016.7 hPa | 0 mm | - | - | - |
| 1787890184 | 25.56° C | 84% | 1016.6 hPa | 0 mm | - | - | - |
| 1787889285 | 25.56° C | 85% | 1016.5 hPa | 0 mm | - | - | - |
| 1787888385 | 25.56° C | 84% | 1016.4 hPa | 0 mm | - | - | - |
| 1787887483 | 26.11° C | 81% | 1016.4 hPa | 0 mm | - | - | - |
| 1787886583 | 26.11° C | 77% | 1016.2 hPa | 0 mm | - | - | - |
| 1787885683 | 26.67° C | 77% | 1016.2 hPa | 0 mm | - | - | - |
| 1787884783 | 26.67° C | 75% | 1015.8 hPa | 0 mm | - | - | - |
| 1787883883 | 27.22° C | 72% | 1015.4 hPa | 0 mm | - | - | - |
| 1787882983 | 27.78° C | 70% | 1015.4 hPa | 0 mm | - | - | - |
| 1787882083 | 28.33° C | 63% | 1015 hPa | 0 mm | - | - | - |
| 1787881189 | 28.89° C | 58% | 1014.7 hPa | 0 mm | - | - | - |
| 1787880283 | 29.44° C | 57% | 1014.3 hPa | 0 mm | - | - | - |
* Rain latest hour (hover to see other rain measurements)
** Current wind speed in m/s (hover to see current wind gust speed)